WN4MDN Weather Reports


Display with metric or nautical units.
time (UTC)temp
F
wind
direction
speed
MPH
gust
MPH
rain 1hr
in
rain 24hr
in
rain mn
in
humidity
%
barometer
mb
20260901024035 73 26 1.0 2.0 0.00 0.57 0.57 94 1016.8
20260901023534 73 26 1.0 2.0 0.00 0.57 0.57 95 1016.9
20260901023105 73 26 0.0 2.0 0.00 0.57 0.57 95 1016.9
20260901022534 73 0 0.0 0.0 0.00 0.57 0.57 94 1016.8
20260901022035 73 0 0.0 0.0 0.00 0.57 0.57 94 1016.9
20260901021557 73 0 0.0 0.0 0.00 0.57 0.57 94 1016.8
20260901021035 73 0 0.0 2.0 0.00 0.57 0.57 94 1016.7
20260901020533 73 0 0.0 2.0 0.00 0.57 0.57 94 1016.7
20260901015534 73 26 1.0 1.0 0.00 0.57 0.57 94 1016.6
20260901015034 74 26 1.0 1.0 0.00 0.57 0.57 94 1016.5
20260901014601 74 26 0.0 2.0 0.00 0.57 0.57 94 1016.4
20260901014034 74 0 0.0 2.0 0.00 0.57 0.57 94 1016.4
20260901013536 74 0 0.0 2.0 0.00 0.57 0.57 94 1016.4
20260901013104 74 26 0.0 1.0 0.00 0.57 0.57 94 1016.3
20260901012538 74 26 1.0 1.0 0.00 0.57 0.57 94 1016.3
20260901012032 74 26 0.0 1.0 0.00 0.57 0.57 94 1016.3
20260901011607 74 26 1.0 2.0 0.00 0.57 0.57 94 1016.3
20260901011033 74 26 1.0 2.0 0.00 0.57 0.57 94 1016.3
20260901010535 74 26 0.0 2.0 0.00 0.57 0.57 94 1016.3
20260901010107 75 26 0.0 2.0 0.00 0.57 0.57 93 1016.3
20260901005535 75 26 0.0 0.0 0.00 0.57 0.57 93 1016.3
20260901005035 75 0 0.0 0.0 0.00 0.57 0.57 93 1016.3
20260901004608 75 0 0.0 0.0 0.00 0.57 0.57 93 1016.2
20260901004034 75 0 0.0 2.0 0.00 0.57 0.57 93 1016.3
20260901003534 75 0 0.0 2.0 0.00 0.57 0.57 93 1016.2
20260901003058 75 26 0.0 2.0 0.00 0.57 0.57 92 1016.2
20260901002537 75 26 0.0 1.0 0.00 0.57 0.57 92 1016.2
20260901002038 76 26 1.0 2.0 0.00 0.57 0.57 92 1016.1
20260901001555 76 26 1.0 2.0 0.00 0.57 0.57 92 1016.2
20260901001034 76 0 0.0 2.0 0.00 0.57 0.57 92 1016.2
20260901000533 76 26 0.0 2.0 0.00 0.57 0.57 92 1016.0
20260831235534 77 26 0.0 2.0 0.00 0.57 0.57 91 1016.0
20260831235034 77 26 1.0 2.0 0.00 0.57 0.57 91 1016.0
20260831234558 77 26 1.0 2.0 0.00 0.57 0.57 91 1016.0
20260831234035 77 26 1.0 2.0 0.00 0.57 0.57 90 1016.0
20260831233534 77 26 1.0 2.0 0.00 0.57 0.57 90 1016.1
20260831233100 78 26 1.0 2.0 0.00 0.57 0.57 90 1016.1
20260831232537 78 29 1.0 2.0 0.00 0.57 0.57 89 1016.0
20260831232034 78 29 1.0 2.0 0.00 0.57 0.57 89 1016.1
20260831231551 78 29 1.0 3.0 0.00 0.57 0.57 88 1016.0
20260831231034 78 30 1.0 3.0 0.00 0.57 0.57 88 1015.9
20260831230533 78 352 1.0 3.0 0.00 0.57 0.57 88 1015.9
20260831230113 79 32 1.0 3.0 0.00 0.57 0.57 88 1016.0
20260831225535 79 13 2.0 3.0 0.00 0.57 0.57 88 1016.0
20260831225037 79 43 1.0 4.0 0.00 0.57 0.57 87 1016.0
20260831224601 79 11 2.0 4.0 0.00 0.57 0.57 87 1016.0
20260831224035 79 28 2.0 5.0 0.00 0.57 0.57 87 1016.0
20260831223534 79 9 2.0 6.0 0.00 0.57 0.57 87 1016.0
20260831223100 79 35 3.0 6.0 0.00 0.57 0.57 86 1015.9
20260831222534 79 20 3.0 6.0 0.00 0.57 0.57 86 1015.9
20260831222034 79 44 3.0 6.0 0.00 0.57 0.57 86 1015.9
20260831221604 79 55 3.0 6.0 0.00 0.57 0.57 87 1015.9
20260831221035 79 15 2.0 8.0 0.00 0.57 0.57 88 1015.9
20260831220533 79 16 4.0 8.0 0.00 0.57 0.57 88 1015.9
20260831220119 78 46 3.0 5.0 0.00 0.57 0.57 88 1015.9
20260831215531 78 10 3.0 6.0 0.00 0.57 0.57 88 1016.0
20260831215035 78 38 3.0 8.0 0.00 0.57 0.57 88 1016.0
20260831214603 78 5 3.0 8.0 0.00 0.57 0.57 89 1016.1
20260831214034 78 39 4.0 8.0 0.00 0.57 0.57 88 1016.1
20260831213535 78 39 3.0 8.0 0.00 0.57 0.57 89 1016.0
20260831213116 78 15 3.0 9.0 0.00 0.57 0.57 89 1016.0
20260831212535 78 45 4.0 9.0 0.00 0.57 0.57 88 1016.0
20260831212037 78 14 3.0 9.0 0.00 0.57 0.57 88 1016.0
20260831211611 78 9 3.0 9.0 0.00 0.57 0.57 87 1016.1
20260831211034 78 13 4.0 9.0 0.00 0.57 0.57 88 1016.2
20260831210536 79 20 4.0 7.0 0.00 0.57 0.57 88 1016.3
20260831210056 79 360 3.0 6.0 0.00 0.57 0.57 89 1016.1
20260831205534 79 342 3.0 5.0 0.00 0.57 0.57 88 1016.2
20260831205034 79 352 3.0 5.0 0.00 0.57 0.57 89 1016.2
20260831204601 79 29 3.0 5.0 0.00 0.57 0.57 88 1016.2
20260831204035 79 352 3.0 5.0 0.00 0.57 0.57 88 1016.2
20260831203535 79 15 2.0 4.0 0.00 0.57 0.57 89 1016.2
20260831203105 79 0 0.0 5.0 0.00 0.57 0.57 90 1016.2
20260831202534 79 360 1.0 5.0 0.00 0.57 0.57 90 1016.1
20260831202035 78 5 3.0 5.0 0.00 0.57 0.57 89 1016.2
20260831201557 78 14 2.0 5.0 0.00 0.57 0.57 90 1016.3
20260831201039 78 38 3.0 6.0 0.00 0.57 0.57 89 1016.4
20260831200535 78 40 4.0 7.0 0.00 0.57 0.57 89 1016.3
20260831195534 78 57 4.0 7.0 0.00 0.57 0.57 89 1016.3
20260831195034 78 45 3.0 8.0 0.00 0.57 0.57 89 1016.4
20260831194600 78 51 4.0 8.0 0.00 0.57 0.57 89 1016.4
20260831194035 78 55 4.0 8.0 0.01 0.57 0.57 89 1016.4
20260831193536 78 49 4.0 6.0 0.01 0.57 0.57 89 1016.6
20260831193058 77 41 3.0 6.0 0.01 0.57 0.57 90 1016.7
20260831192534 77 42 4.0 6.0 0.01 0.57 0.57 89 1016.8
20260831192037 77 41 2.0 3.0 0.01 0.57 0.57 91 1016.8
20260831191602 76 71 1.0 3.0 0.01 0.57 0.57 91 1016.9
20260831191035 76 70 1.0 4.0 0.01 0.57 0.57 91 1016.9
20260831190535 76 65 2.0 4.0 0.01 0.57 0.57 91 1016.8
20260831190110 76 56 2.0 4.0 0.01 0.57 0.57 90 1016.7
20260831185534 76 45 2.0 4.0 0.01 0.57 0.57 91 1016.6
20260831185035 75 55 2.0 2.0 0.01 0.57 0.57 92 1016.6
20260831184605 75 17 1.0 2.0 0.01 0.57 0.57 92 1016.6
20260831184034 75 321 0.0 3.0 0.01 0.56 0.56 92 1016.6
20260831183534 75 321 1.0 3.0 0.01 0.56 0.56 92 1016.7
20260831183105 75 360 1.0 3.0 0.02 0.56 0.56 92 1016.7
20260831182534 75 344 1.0 5.0 0.03 0.56 0.56 93 1016.9
20260831182035 74 360 2.0 5.0 0.04 0.56 0.56 92 1017.1
20260831181554 74 341 2.0 5.0 0.04 0.56 0.56 93 1017.2
20260831181036 74 317 3.0 6.0 0.05 0.56 0.56 92 1017.3
20260831180535 74 336 3.0 6.0 0.05 0.56 0.56 92 1017.2
20260831180105 74 335 4.0 6.0 0.05 0.56 0.56 92 1017.3
20260831175534 75 335 4.0 6.0 0.05 0.56 0.56 91 1017.4
20260831175033 75 345 3.0 14.0 0.06 0.56 0.56 91 1017.3
20260831174558 75 15 3.0 14.0 0.06 0.56 0.56 90 1017.3
20260831174035 75 322 6.0 14.0 0.05 0.55 0.55 91 1017.4
20260831173534 76 339 4.0 8.0 0.05 0.55 0.55 93 1017.2
20260831173052 76 244 1.0 4.0 0.05 0.54 0.54 93 1017.3
20260831172533 76 230 1.0 4.0 0.05 0.52 0.52 93 1017.4
20260831172034 76 224 1.0 3.0 0.05 0.52 0.52 93 1017.4
20260831171558 76 248 1.0 2.0 0.05 0.52 0.52 93 1017.4
20260831171036 76 236 0.0 5.0 0.04 0.51 0.51 94 1017.3
20260831170536 76 230 1.0 7.0 0.05 0.51 0.51 93 1017.3
20260831170104 76 231 1.0 7.0 0.11 0.51 0.51 93 1017.3
20260831165537 76 234 4.0 7.0 0.25 0.52 0.51 93 1017.3
20260831165034 76 192 2.0 5.0 0.36 0.51 0.50 93 1017.3
20260831164606 76 278 1.0 9.0 0.44 0.51 0.50 93 1017.3
20260831164037 76 277 2.0 9.0 0.48 0.51 0.50 92 1017.5
20260831163535 76 283 4.0 9.0 0.50 0.51 0.50 91 1017.7
20260831163058 77 272 3.0 7.0 0.49 0.50 0.49 91 1017.9
20260831162535 77 276 0.0 3.0 0.48 0.49 0.48 91 1017.8
20260831162035 77 278 1.0 5.0 0.47 0.48 0.47 90 1017.7
20260831161556 77 288 2.0 5.0 0.47 0.48 0.47 90 1017.7
20260831161034 77 328 3.0 5.0 0.47 0.48 0.47 91 1017.8
20260831160537 78 350 2.0 8.0 0.46 0.47 0.46 88 1017.7
20260831160104 79 42 5.0 8.0 0.38 0.39 0.38 87 1017.8
20260831155535 79 19 3.0 6.0 0.25 0.26 0.25 86 1017.7
20260831155035 80 336 4.0 6.0 0.14 0.15 0.14 85 1017.7
20260831154614 81 360 3.0 4.0 0.05 0.06 0.05 86 1017.6
20260831154035 82 352 2.0 3.0 0.02 0.03 0.02 85 1017.6
20260831153532 82 352 2.0 4.0 0.00 0.01 0.00 81 1017.6
20260831153100 83 25 2.0 4.0 0.00 0.01 0.00 80 1017.6
20260831152534 84 54 1.0 4.0 0.00 0.01 0.00 78 1017.7
20260831152032 84 71 2.0 4.0 0.00 0.01 0.00 77 1017.6
20260831151602 84 69 2.0 6.0 0.00 0.01 0.00 78 1017.6
20260831151032 84 94 3.0 6.0 0.00 0.01 0.00 77 1017.6
20260831150532 85 55 4.0 6.0 0.00 0.01 0.00 75 1017.5
20260831145532 86 72 3.0 8.0 0.00 0.01 0.00 73 1017.5
20260831145032 85 82 2.0 9.0 0.00 0.01 0.00 75 1017.5
20260831144609 85 96 1.0 9.0 0.00 0.01 0.00 75 1017.6
20260831144033 85 70 3.0 6.0 0.00 0.01 0.00 77 1017.6
20260831143535 85 22 3.0 6.0 0.00 0.01 0.00 78 1017.6
20260831143106 84 90 2.0 6.0 0.00 0.01 0.00 81 1017.6
20260831142534 84 43 3.0 6.0 0.00 0.01 0.00 80 1017.5
20260831142037 84 24 3.0 6.0 0.00 0.01 0.00 80 1017.5
20260831141617 84 86 3.0 6.0 0.00 0.01 0.00 80 1017.5
20260831141032 84 78 1.0 4.0 0.00 0.01 0.00 79 1017.5
20260831140535 83 96 2.0 5.0 0.00 0.01 0.00 82 1017.5
20260831135533 82 44 2.0 6.0 0.00 0.01 0.00 81 1017.5
20260831135038 83 35 3.0 5.0 0.00 0.01 0.00 81 1017.5
20260831134603 82 87 2.0 6.0 0.00 0.01 0.00 82 1017.4
20260831134034 82 59 3.0 6.0 0.00 0.01 0.00 82 1017.3
20260831133534 82 13 2.0 5.0 0.00 0.01 0.00 84 1017.3
20260831133100 81 66 2.0 5.0 0.00 0.01 0.00 86 1017.3
20260831132536 81 348 3.0 6.0 0.00 0.01 0.00 87 1017.3
20260831132034 80 17 4.0 6.0 0.00 0.01 0.00 87 1017.2
20260831131600 80 345 4.0 6.0 0.00 0.01 0.00 87 1017.1
20260831131035 79 352 4.0 6.0 0.00 0.01 0.00 89 1017.1
20260831130534 79 338 2.0 5.0 0.00 0.01 0.00 89 1017.2
20260831125535 77 343 3.0 5.0 0.00 0.01 0.00 95 1017.1
20260831125035 76 342 1.0 4.0 0.00 0.01 0.00 95 1017.0
20260831124601 75 342 2.0 3.0 0.00 0.01 0.00 95 1017.0
20260831124035 75 348 2.0 3.0 0.00 0.01 0.00 96 1017.0
20260831123534 74 351 2.0 3.0 0.00 0.01 0.00 96 1016.9
20260831123059 74 10 2.0 3.0 0.00 0.01 0.00 96 1016.9
20260831122534 74 352 2.0 3.0 0.00 0.01 0.00 96 1016.8
20260831122037 73 11 1.0 2.0 0.00 0.01 0.00 96 1016.8
20260831121551 73 11 0.0 2.0 0.00 0.01 0.00 96 1016.9
20260831121038 73 11 0.0 2.0 0.00 0.01 0.00 96 1016.9
20260831120534 72 0 0.0 0.0 0.00 0.01 0.00 96 1016.8
20260831120105 72 0 0.0 1.0 0.00 0.01 0.00 96 1016.6
20260831115534 72 0 0.0 2.0 0.00 0.01 0.00 96 1016.5
20260831115034 72 11 0.0 2.0 0.00 0.01 0.00 96 1016.4
20260831114600 72 11 1.0 2.0 0.00 0.01 0.00 96 1016.4
20260831114034 71 11 0.0 2.0 0.00 0.01 0.00 96 1016.3
20260831113534 71 11 0.0 2.0 0.00 0.01 0.00 96 1016.2
20260831113056 71 11 0.0 1.0 0.00 0.01 0.00 96 1016.2
20260831112536 70 0 0.0 2.0 0.00 0.01 0.00 96 1016.1
20260831112034 70 0 0.0 2.0 0.00 0.01 0.00 96 1016.1
20260831111609 70 11 0.0 1.0 0.00 0.01 0.00 95 1016.1
20260831111034 70 0 0.0 2.0 0.00 0.01 0.00 95 1016.0
20260831110538 70 11 0.0 2.0 0.00 0.01 0.00 95 1016.1
20260831105536 70 0 0.0 1.0 0.00 0.01 0.00 95 1015.9
20260831105035 70 0 0.0 1.0 0.00 0.01 0.00 95 1015.8
20260831104559 70 0 0.0 1.0 0.00 0.01 0.00 95 1015.7
20260831104036 70 11 1.0 1.0 0.00 0.01 0.00 95 1015.8
20260831103535 70 11 0.0 2.0 0.00 0.01 0.00 95 1015.7
20260831103050 70 0 0.0 2.0 0.00 0.01 0.00 95 1015.7
20260831102537 70 11 0.0 2.0 0.00 0.01 0.00 95 1015.8
20260831102034 70 0 0.0 2.0 0.00 0.01 0.00 95 1015.6
20260831101558 70 11 0.0 2.0 0.00 0.01 0.00 95 1015.6
20260831101035 70 11 1.0 2.0 0.00 0.01 0.00 95 1015.6
20260831100538 70 11 0.0 1.0 0.00 0.01 0.00 95 1015.5
20260831100106 70 0 0.0 1.0 0.00 0.01 0.00 95 1015.4
20260831095532 70 0 0.0 1.0 0.00 0.01 0.00 95 1015.4
20260831095036 70 11 0.0 2.0 0.00 0.01 0.00 95 1015.5
20260831094603 70 11 0.0 2.0 0.00 0.01 0.00 95 1015.5
20260831094034 70 11 0.0 2.0 0.00 0.01 0.00 95 1015.4
20260831093534 70 0 0.0 2.0 0.00 0.01 0.00 95 1015.4
20260831093055 70 0 0.0 2.0 0.00 0.01 0.00 95 1015.4
20260831092534 70 11 1.0 1.0 0.00 0.01 0.00 95 1015.4
20260831092035 70 11 1.0 2.0 0.00 0.01 0.00 95 1015.4
20260831091602 70 11 0.0 2.0 0.00 0.01 0.00 95 1015.5
20260831091033 70 11 0.0 2.0 0.00 0.01 0.00 95 1015.6
20260831090535 70 0 0.0 0.0 0.00 0.01 0.00 95 1015.6
20260831090100 70 0 0.0 0.0 0.00 0.01 0.00 95 1015.6
20260831085534 70 0 0.0 0.0 0.00 0.01 0.00 95 1015.7
20260831085035 70 0 0.0 2.0 0.00 0.01 0.00 95 1015.7
20260831084603 70 0 0.0 2.0 0.00 0.01 0.00 95 1015.8
20260831084035 70 11 0.0 3.0 0.00 0.01 0.00 95 1015.9
20260831083535 70 11 2.0 3.0 0.00 0.01 0.00 95 1016.0
20260831083111 70 46 1.0 2.0 0.00 0.01 0.00 95 1016.1
20260831082533 70 98 1.0 1.0 0.00 0.01 0.00 95 1016.1
20260831082035 70 98 0.0 1.0 0.00 0.01 0.00 95 1016.0
20260831081608 70 98 1.0 1.0 0.00 0.01 0.00 95 1016.0
20260831081034 70 98 0.0 0.0 0.00 0.01 0.00 94 1016.0
20260831080534 70 0 0.0 0.0 0.00 0.01 0.00 94 1015.9
20260831080057 70 0 0.0 0.0 0.00 0.01 0.00 94 1015.9
20260831075534 70 0 0.0 0.0 0.00 0.01 0.00 95 1015.8
20260831075032 70 0 0.0 0.0 0.00 0.01 0.00 94 1015.8
20260831074618 70 0 0.0 0.0 0.00 0.01 0.00 94 1015.7
20260831074033 71 0 0.0 0.0 0.00 0.01 0.00 95 1015.7
20260831073534 70 0 0.0 1.0 0.00 0.01 0.00 95 1015.8
20260831073107 71 0 0.0 2.0 0.00 0.01 0.00 95 1015.8
20260831072533 71 0 0.0 2.0 0.00 0.01 0.00 95 1016.0
20260831072034 71 98 0.0 2.0 0.00 0.01 0.00 94 1016.1
20260831071559 71 98 0.0 2.0 0.00 0.01 0.00 94 1016.1
20260831071034 71 98 0.0 2.0 0.00 0.01 0.00 94 1016.1
20260831070536 71 98 0.0 2.0 0.00 0.01 0.00 94 1016.1
20260831065536 71 0 0.0 2.0 0.00 0.01 0.00 94 1016.0
20260831065033 71 0 0.0 2.0 0.00 0.01 0.00 94 1016.0
20260831064601 71 0 0.0 2.0 0.00 0.01 0.00 94 1016.1
20260831064034 71 98 0.0 2.0 0.00 0.01 0.00 94 1016.1
20260831063534 71 98 0.0 2.0 0.00 0.01 0.00 94 1016.1
20260831063058 71 98 1.0 2.0 0.00 0.01 0.00 94 1016.2
20260831062535 71 217 1.0 2.0 0.00 0.01 0.00 94 1016.2
20260831062035 71 217 1.0 2.0 0.00 0.01 0.00 93 1016.2
20260831061600 71 186 0.0 2.0 0.00 0.01 0.00 94 1016.2
20260831061037 72 186 1.0 2.0 0.00 0.01 0.00 95 1016.1
20260831060534 72 185 1.0 2.0 0.00 0.01 0.00 94 1016.3
20260831060100 72 185 0.0 2.0 0.00 0.01 0.00 94 1016.3
20260831055536 72 185 0.0 1.0 0.00 0.01 0.00 94 1016.5
20260831055034 72 185 1.0 2.0 0.00 0.01 0.00 94 1016.7
20260831054600 72 185 1.0 2.0 0.00 0.01 0.00 94 1016.9
20260831054034 72 185 0.0 2.0 0.00 0.01 0.00 94 1016.8
20260831053535 72 185 0.0 2.0 0.00 0.01 0.00 94 1016.9
20260831053058 72 0 0.0 2.0 0.00 0.01 0.00 94 1016.9
20260831052535 72 0 0.0 2.0 0.00 0.01 0.00 94 1016.8
20260831052033 72 185 0.0 2.0 0.00 0.01 0.00 94 1016.8
20260831051553 72 185 1.0 2.0 0.00 0.01 0.00 94 1016.7
20260831051034 72 185 1.0 2.0 0.00 0.01 0.00 94 1016.8
20260831050540 72 0 0.0 3.0 0.00 0.01 0.00 94 1016.8
20260831050100 72 185 1.0 4.0 0.00 0.01 0.00 94 1016.8
20260831045538 72 185 2.0 4.0 0.00 0.01 0.00 94 1016.9
20260831045036 72 170 0.0 2.0 0.00 0.01 0.00 94 1016.9
20260831044613 72 170 2.0 2.0 0.00 0.01 0.00 93 1017.0
20260831044037 72 0 0.0 2.0 0.00 0.01 0.00 93 1017.0
20260831043534 72 93 0.0 2.0 0.00 0.01 0.00 93 1016.9
20260831043110 72 0 0.0 2.0 0.00 0.01 0.00 93 1017.0
20260831042536 72 0 0.0 2.0 0.00 0.01 0.00 93 1017.1
20260831042034 73 0 0.0 2.0 0.00 0.01 0.00 93 1017.1
20260831041601 73 93 1.0 2.0 0.00 0.01 0.00 93 1017.2
20260831041035 73 93 0.0 2.0 0.00 0.01 0.00 93 1017.2
20260831040535 73 0 0.0 2.0 0.00 0.01 0.00 93 1017.2
20260831040101 73 0 0.0 2.0 0.00 0.01 0.00 93 1017.2
20260831035534 73 93 0.0 1.0 0.00 0.01 0.01 93 1017.1
20260831035034 73 93 0.0 1.0 0.00 0.01 0.01 93 1017.1
20260831034556 73 93 1.0 1.0 0.00 0.01 0.01 93 1017.2
20260831034034 73 93 1.0 1.0 0.00 0.01 0.01 93 1017.3
20260831033534 73 93 1.0 2.0 0.00 0.01 0.01 93 1017.2
20260831033101 73 93 0.0 2.0 0.00 0.01 0.01 93 1017.4
20260831032533 73 0 0.0 1.0 0.00 0.01 0.01 93 1017.6
20260831032033 73 93 0.0 2.0 0.00 0.01 0.01 93 1017.5
20260831031552 73 0 0.0 2.0 0.00 0.01 0.01 92 1017.5
20260831031036 73 0 0.0 0.0 0.00 0.01 0.01 92 1017.6
20260831030535 74 0 0.0 0.0 0.00 0.01 0.01 92 1017.6
20260831025534 74 0 0.0 2.0 0.00 0.01 0.01 92 1017.5
20260831025035 74 93 0.0 2.0 0.00 0.01 0.01 92 1017.3
20260831024555 74 93 0.0 2.0 0.00 0.01 0.01 92 1017.3